Prescott, AZ

6:28 AM MST on August 22, 2017 (GMT -0700)
Love

Weather History for KPRC - July, 2014

Change the Weather History Date:

Wednesday, July 9, 2014

  Actual Average Record
Temperature  
Mean Temperature 72 °F 76 °F  
Max Temperature 83 °F 90 °F 102 °F (2003)
Min Temperature 61 °F 61 °F 53 °F (1948)
Degree Days  
Heating Degree Days 0    
Month to date heating degree days  
Since 1 July heating degree days 0  
Cooling Degree Days 7    
Month to date cooling degree days  
Year to date cooling degree days 408  
Growing Degree Days 22 (Base 50)    
Moisture  
Dew Point 53 °F    
Average Humidity 51    
Maximum Humidity 78    
Minimum Humidity 33    
Precipitation  
Precipitation 0.00 in 0.05 in 0.64 in (2000)
Month to date precipitation 0.82 0.40  
Year to date precipitation 1.79 5.33  
Sea Level Pressure  
Sea Level Pressure 29.94 in    
Wind  
Wind Speed 6 mph (SSW)    
Max Wind Speed 17 mph    
Max Gust Speed 21 mph    
Visibility 10 miles    
Events      
T = Trace of Precipitation, MM = Missing Value Source: NWS Daily Summary

Daily Weather History Graph

Daily Weather History Graph

Search for Another Location

Airport or City:

Trip Planner

Search our weather history database for the weather conditions in past years. The results will help you decide how hot, cold, wet, or windy it might be!

Date:

Astronomy

Jul. 09, 2014 Rise Set
Actual Time 5:24 AM MST 7:45 PM MST
Civil Twilight 4:55 AM MST 8:14 PM MST
Nautical Twilight 4:19 AM MST 8:50 PM MST
Astronomical Twilight 3:40 AM MST 9:29 PM MST
Moon 5:03 PM MST (7/9) 2:42 AM MST (7/9)
Length of Visible Light 15h 19m
Length of Day
14h 20m
Waxing Gibbous, 90% of the Moon is Illuminated
Jul 9
Waxing Gibbous
Jul 12
Full
Jul 18
Last Quarter
Jul 26
New
Aug 3
First Quarter

Hourly Weather History & Observations

Time (MST) Temp. Heat Index Dew Point Humidity Pressure Visibility Wind Dir Wind Speed Gust Speed Precip Events Conditions
12:53 AM 62.1 °F - 54.0 °F 75% 29.96 in 10.0 mi SSW 4.6 mph - N/A   Partly Cloudy
1:53 AM 63.0 °F - 55.0 °F 75% 29.99 in 10.0 mi SSW 5.8 mph - N/A   Mostly Cloudy
2:53 AM 63.0 °F - 53.1 °F 70% 29.99 in 10.0 mi SSW 9.2 mph - N/A   Clear
3:53 AM 64.0 °F - 54.0 °F 70% 29.96 in 10.0 mi South 5.8 mph - N/A   Mostly Cloudy
4:53 AM 64.9 °F - 54.0 °F 68% 29.97 in 10.0 mi SSE 4.6 mph - N/A   Mostly Cloudy
5:53 AM 64.9 °F - 54.0 °F 68% 29.98 in 10.0 mi SE 4.6 mph - N/A   Mostly Cloudy
6:53 AM 69.1 °F - 55.0 °F 61% 29.98 in 10.0 mi WSW 3.5 mph - N/A   Scattered Clouds
7:53 AM 73.0 °F - 55.0 °F 53% 29.98 in 10.0 mi NNE 5.8 mph - N/A   Scattered Clouds
8:53 AM 75.0 °F - 54.0 °F 48% 30.00 in 10.0 mi Calm Calm - N/A   Partly Cloudy
9:53 AM 77.0 °F - 53.1 °F 43% 29.98 in 10.0 mi Calm Calm - N/A   Partly Cloudy
10:53 AM 79.0 °F - 52.0 °F 39% 29.98 in 10.0 mi ENE 4.6 mph - N/A   Scattered Clouds
11:53 AM 82.0 °F - 50.0 °F 33% 29.94 in 10.0 mi West 8.1 mph - N/A   Scattered Clouds
12:53 PM 81.0 °F - 48.9 °F 33% 29.94 in 10.0 mi Variable 3.5 mph - N/A   Scattered Clouds
1:53 PM 82.9 °F - 51.1 °F 33% 29.91 in 10.0 mi WSW 13.8 mph - N/A   Mostly Cloudy
2:53 PM 80.1 °F 80.1 °F 55.0 °F 42% 29.91 in 10.0 mi South 8.1 mph - N/A   Mostly Cloudy
3:53 PM 80.1 °F - 52.0 °F 38% 29.89 in 10.0 mi SSW 12.7 mph - N/A   Overcast
5:53 PM 80.1 °F 79.9 °F 53.1 °F 39% 29.85 in 10.0 mi South 6.9 mph - N/A   Scattered Clouds
6:53 PM 80.1 °F - 51.1 °F 36% 29.85 in 10.0 mi SW 5.8 mph - N/A   Clear
7:53 PM 77.0 °F - 51.1 °F 40% 29.86 in 10.0 mi WSW 6.9 mph - N/A   Mostly Cloudy
8:53 PM 75.0 °F - 53.1 °F 46% 29.89 in 10.0 mi SSW 8.1 mph - N/A   Overcast
9:53 PM 73.9 °F - 54.0 °F 50% 29.91 in 10.0 mi SSW 3.5 mph - N/A   Mostly Cloudy
10:53 PM 71.1 °F - 55.0 °F 57% 29.91 in 10.0 mi South 4.6 mph - N/A   Clear
11:53 PM 70.0 °F - 55.9 °F 61% 29.90 in 10.0 mi South 4.6 mph - N/A   Clear